ERS-2 (23560 NORAD) Tracking and Keplerian Element Data

This shows tracking and keplerian element data for the satellite.

Feedback or suggestion? Click here.




ElementValue
Catalog23560
NameERS-2
Epoch Orbit54177
Epoch Day12.98070396
Epoch Year2024
RAAN21.9331
Inclination98.5194
Eccentricity0.0003566
Argument of Perigee97.1139
Mean Anonmoly263.0528
Mean Motion15.7597785
Decay Rate0.00210778
L11 23560U 95021A 24012.98070396 .00210778 00000+0 13323-2 0 9992
L22 23560 98.5194 21.9331 0003566 97.1139 263.0528 15.75977850541777



Live tracking and technical data element details for ERS-2 (NORAD 23560). ERS-2 can be tracked NOW for your location showing map with azimuth and elevation plus other details from your city location.







IsCatalogInMostPopularTable: catalog: 23560, numindb: 498
Update: records affected: 1



GetName: 23560 ERS-2

Hit Count: updated at: Sun, 14 Apr 2024 23:25:22 GMT